Regional Weather Roundup
Issued by NWS

Home | Current Version | Previous Version | Text Only | Print | Product List | Glossary On
Versions: 1 2 3 4 5 6 7 8 9 10 11 12 13 14 15 16 17 18 19 20 21 22 23 24 25 26 27 28 29 30 31 32 33 34 35 36 37 38 39 40 41 42 43 44 45 46 47 48 49 50
000
ASCA44 KEWX 300720
RWRMX

LATIN AMERICA AND CARIBBEAN REGIONAL WEATHER ROUNDUP
NATIONAL WEATHER SERVICE AUSTIN/SAN ANTONIO TX
200 AM CDT SAT JUL 30 2016

NOTE: "FAIR" INDICATED FEW OR NO CLOUDS BELOW 12,000 FEET WITH NO
SIGNIFICANT WEATHER AND/OR OBSTRUCTIONS TO VISIBILITY.

BAJA CALIFORNIA

CITY           SKY/WX    TMP DP  RH WIND       PRES   REMARKS
MEXICALI       CLEAR     88  72  58 E31       29.73R BLWGDUSTHX  94
S.J. DEL CABO  PTCLDY    81  72  74 CALM      29.88F
TIJUANA        PTCLDY    68  61  77 NW5       29.86S

NORTHWESTERN MEXICO

CITY           SKY/WX    TMP DP  RH WIND       PRES   REMARKS
HERMOSILLO     LGT RAIN  77  73  88 NE7       29.93R

NORTHEASTERN MEXICO

CITY           SKY/WX    TMP DP  RH WIND       PRES   REMARKS
MONCLOVA         N/A    N/A N/A N/A MISG        N/A
MONTERREY      CLOUDY    79  70  73 E9        29.99S
REYNOSA          N/A    N/A N/A N/A MISG        N/A
CD. VICTORIA     N/A    N/A N/A N/A MISG        N/A

WESTERN MEXICO

CITY           SKY/WX    TMP DP  RH WIND       PRES   REMARKS
AGUASCALIENTES   N/A    N/A N/A N/A MISG        N/A
COLIMA           N/A    N/A N/A N/A MISG        N/A
GUADALAJARA    MOCLDY    64  61  88 CALM      30.22F
MAZATLAN       PTCLDY    79  75  89 NE3       29.90S
P. VALLARTA    CLOUDY    77  75  94 N5        29.90F
URUAPAN          N/A    N/A N/A N/A MISG        N/A
ZACATECAS      CLOUDY    59  54  82 CALM      30.33F

CENTRAL MEXICO

CITY           SKY/WX    TMP DP  RH WIND       PRES   REMARKS
CUERNAVACA       N/A    N/A N/A N/A MISG        N/A
MEXICO CITY    LGT RAIN  57  52  82 NE7       30.36F
MORELIA        CLOUDY    59  57  94 CALM      30.29R
POZA RICA        N/A    N/A N/A N/A MISG        N/A
QUERETARO      MOCLDY    63  57  82 E5        30.33S
S. LUIS POTOSI PTCLDY    61  52  72 NE5       30.30S
TOLUCA         MOCLDY    54  50  87 CALM      30.42S

SOUTHERN MEXICO

CITY           SKY/WX    TMP DP  RH WIND       PRES   REMARKS
ACAPULCO       PTCLDY    79  75  89 N5        29.86F
B. DE HUATULCO   N/A    N/A N/A N/A MISG        N/A
P. ESCONDIDO     N/A    N/A N/A N/A MISG        N/A
VERACRUZ         N/A    N/A N/A N/A MISG        N/A

YUCATAN PENINSULA

CITY           SKY/WX    TMP DP  RH WIND       PRES   REMARKS
CAMPECHE         N/A    N/A N/A N/A MISG        N/A
CANCUN         PTCLDY    82  77  83 E5        30.00F HX  91
CHETUMAL         N/A    N/A N/A N/A MISG        N/A
CD. DEL CARMEN   N/A    N/A N/A N/A MISG        N/A
COZUMEL        PTCLDY    77  75  94 E3        29.99F
MERIDA         MOCLDY    77  72  83 NE6       29.99F
MINATITLAN       N/A    N/A N/A N/A MISG        N/A
TAPACHULA      MOCLDY    79  73  83 CALM      29.85F
TUX. GUTIERREZ MOCLDY    70  68  94 S3        29.98F

CENTRAL AMERICA

CITY           SKY/WX    TMP DP  RH WIND       PRES   REMARKS

CARIBBEAN

CITY           SKY/WX    TMP DP  RH WIND       PRES   REMARKS
ARUBA          PTCLDY    82  77  83 E16       29.83F HX  91
KINGSTON       PTCLDY    82  73  74 W6        29.92F
NASSAU         MOCLDY    81  72  74 CALM      30.04
SAN JUAN       PTCLDY    81  75  83 E7        29.99F
SANTO DOMINGO  PTCLDY    73  73 100 CALM      29.94F THUNDER
ST. CROIX      CLEAR     82  75  78 E12       29.98
ST. MAARTEN    PTCLDY    82  73  74 E13       29.97S
ST. THOMAS     CLEAR     84  73  70 E16G24    29.98  HX  91

$$




USA.gov is the U.S. government's official web portal to all federal, state and local government web resources and services.